Location: Palo Alto
(37.4420°N, 122.1420°W)
Time: 12:31:44
(UTC-07:00)

X-37B - Pass Details

Date: 19 August 2020
Orbit: 386 x 387 km, 45.0° (Epoch: 18 September)

Event Time Altitude Azimuth Distance (km) Brightness Sun altitude
Rises 20:23:42 0° 301° (WNW) 2,265 6.7 -6.3°
Reaches altitude 10° 20:25:51 10° 309° (NW) 1,409 4.9 -6.7°
Maximum altitude 20:28:52 40° 21° (NNE) 583 1.5 -7.2°
Drops below altitude 10° 20:31:52 10° 93° (E) 1,405 2.8 -7.8°
Enters shadow 20:31:58 10° 93° (E) 1,439 2.9 -7.8°
